Вернуться в каталог

KUIPER-00296

АктивенСвязьLEO
NORAD 68595·PAYLOAD·🇺🇸 United States

Запущен Apr 4, 2026 с Cape Canaveral Space Force Station

Loading…

Ближайшие Пролёты (ближайшие 24 часа)

TLE

СвежийSource: CelesTrak SupGP

Эпоха: Sep 14, 2026, 21:20 UTC

1 68595C 26072Y   26257.88935185  .00003159  00000+0  41359-3 0  2578
2 68595  51.8993 121.5041 0000819 106.1794 318.3736 14.79922245    17

Отслеживайте KUIPER-00296 в реальном времени с AllMySat

Download on the App Store